Content
SEND FEEDBACK

Daily
Averages
Monthly
Summary
United States of America

MIDDLETOWN, NEW YORK


Home > North America > United States > New York
Elevation: 700 feet     Latitude: 41 27N     Longitude: 074 27W

WEATHER
 
SELECT A DAY
Number of Records: 186,927;   Date Range: 12/17/97 - 12/23/14
 
SHARE

PRINT THIS DATA

[ ← Previous Day ]
WEATHER ALMANAC - FEBRUARY 21, 2014
[ Next Day → ]
[ °C ]   °F
Weather ElementAverageHighLow
Temperature33.9 °F39 °F (3:31 pm)27 °F (9:54 pm)
Dewpoint32.3 °F37.9 °F (3:31 pm)25 °F (9:54 pm)
Humidity94 %100 % (10:50 am)88 % (10:21 pm)
Barometer29.82 in29.99 in (1:54 am)29.65 in (3:02 pm)
Wind Speed4 mph12.7 mph (3:14 pm)
Wind Gust28.8 mph (3:14 pm)
Weather ElementAverage
Visibility1.9 mi
Wind DirectionENE (80.9 °)

Weather ElementTotal
Precipitation0.74 in
Heating Degree Days32 (Base 65)
Averaged from 69 records on February 21, 2014
WEATHER CONDITIONS BREAKOUT
WIND DIRECTION BREAKOUT
WEATHER BY HOUR - FEBRUARY 21, 2014
[ °C ]   °F
Local TimeTemperatureDewpointHumidityBarometerVisibilityWind DirectionWind SpeedGust SpeedPrecipitationEventsConditions
1:39 AM34.0 °F32.0 °F92 %29.98 in2.5 miNorth (10°)4.6 mph0.01 inRainLight Rain
1:54 AM34.0 °F32.0 °F92 %29.99 in1.5 miNorth (10°)4.6 mph0.02 inRainLight Rain
2:29 AM34.0 °F32.0 °F92 %29.95 in1.0 miNNE (30°)5.8 mph0.00 inOvercast
2:46 AM34.0 °F32.0 °F92 %29.94 in0.8 miNNE (20°)5.8 mph0.00 inOvercast
2:54 AM34.0 °F32.0 °F92 %29.95 in0.8 miNorth (10°)4.6 mph0.00 inOvercast
3:27 AM34.0 °F33.1 °F96 %29.94 in0.8 miNorth (10°)5.8 mphOvercast
3:54 AM34.0 °F33.1 °F96 %29.94 in0.5 miNNE (20°)5.8 mphFogFog
4:54 AM35.1 °F33.1 °F92 %29.95 in0.5 miNNE (20°)6.9 mphFogFog
5:10 AM35.1 °F33.1 °F92 %29.94 in0.5 miNNE (20°)6.9 mphFogFog
5:54 AM35.1 °F34.0 °F96 %29.94 in0.5 miNE (40°)5.8 mphFogFog
6:54 AM35.1 °F33.1 °F92 %29.94 in0.5 miNNE (20°)5.8 mphFogFog
7:54 AM35.1 °F33.1 °F92 %29.92 in0.2 miNorth (10°)6.9 mphFogFog
8:40 AM35.1 °F34.0 °F96 %29.91 in1.0 miNorth (10°)5.8 mph0.00 inOvercast
8:54 AM35.1 °F34.0 °F96 %29.91 in1.0 miNNE (20°)5.8 mph0.01 inOvercast
9:15 AM35.1 °F34.0 °F96 %29.88 in1.5 miNNE (20°)5.8 mphOvercast
9:47 AM36.0 °F34.0 °F93 %29.86 in2.0 miNNE (20°)5.8 mph0.00 inOvercast
9:54 AM36.0 °F35.1 °F97 %29.87 in2.0 miNNE (30°)4.6 mph0.00 inOvercast
10:10 AM37.0 °F35.1 °F93 %29.86 in1.8 miNE (40°)5.8 mph0.00 inOvercast
10:43 AM36.0 °F35.1 °F97 %29.85 in2.0 miNNE (30°)4.6 mph0.01 inOvercast
10:50 AM35.6 °F35.6 °F100 %29.85 in2.0 miNNE (30°)4.6 mph0.01 inRainLight Rain
10:54 AM36.0 °F35.1 °F97 %29.86 in2.5 miNNE (30°)4.6 mph0.01 inOvercast
11:06 AM37.0 °F35.1 °F93 %29.83 in3.0 miNE (50°)5.8 mph0.00 inOvercast
11:54 AM37.0 °F35.1 °F93 %29.80 in4.0 miNE (40°)5.8 mph0.00 inRainLight Rain
12:12 PM36.0 °F35.1 °F97 %29.77 in1.8 miNorth (10°)5.8 mph0.00 inRainLight Rain
12:36 PM36.0 °F34.0 °F93 %29.75 in0.8 miNorth (10°)6.9 mph0.00 inRainLight Rain
12:54 PM36.0 °F34.0 °F93 %29.73 in0.5 miNNE (20°)8.1 mph0.00 inFogFog
1:06 PM36.0 °F34.0 °F93 %29.71 in0.5 miNorth (10°)8.1 mphFogFog
1:14 PM36.0 °F34.0 °F93 %29.70 in0.5 miNorthFogFog
1:54 PM37.0 °F35.1 °F93 %29.68 in0.5 miNNE (20°)6.9 mph0.00 inFogFog
2:18 PM37.0 °F35.1 °F93 %29.66 in0.2 miNorth (360°)6.9 mph0.00 inFog-RainLight Rain
2:45 PM37.0 °F36.0 °F96 %29.67 in1.2 miNW (320°)6.9 mph0.06 inRainLight Rain
2:51 PM37.4 °F35.6 °F93 %29.67 in3.0 miNW (320°)4.6 mph0.06 inRainLight Rain
2:54 PM37.9 °F36.0 °F93 %29.68 in4.0 miCalm0.06 inRainLight Rain
3:02 PM37.0 °F36.0 °F96 %29.65 in3.0 miNorth (10°)3.5 mph0.01 inRainRain
3:14 PM37.9 °F36.0 °F93 %29.71 in2.5 miWNW (290°)12.7 mph28.8 mph0.06 inRainHeavy Rain
3:23 PM37.9 °F37.0 °F97 %29.68 in5.0 miNW (320°)9.2 mph0.07 inRainLight Rain
3:31 PM39.0 °F37.9 °F96 %29.67 in2.5 miNW (320°)6.9 mph0.09 inRainLight Rain
3:37 PM39.0 °F37.9 °F96 %29.67 in3.0 miCalm0.10 inRainRain
3:54 PM37.9 °F37.0 °F97 %29.72 in7.0 miSouth (170°)8.1 mph0.11 inRainLight Rain
4:54 PM37.0 °F37.0 °F100 %29.73 in2.0 miCalm0.05 inOvercast
4:56 PM37.0 °F36.0 °F96 %29.72 in1.0 miCalmOvercast
5:04 PM37.9 °F36.0 °F93 %29.71 in0.5 miCalmFogFog
5:49 PM37.4 °F35.6 °F93 %29.73 in0.2 miCalm0.00 inFogFog
5:54 PM36.0 °F35.1 °F97 %29.73 in0.2 miCalm0.00 inFogFog
6:36 PM35.1 °F33.1 °F92 %29.75 in0.5 miCalmFogFog
6:54 PM34.0 °F33.1 °F96 %29.78 in0.2 miCalmFogFog
7:24 PM33.1 °F30.9 °F92 %29.78 in1.2 miCalmMostly Cloudy
7:35 PM32.0 °F30.9 °F96 %29.79 in0.8 miCalmMist
7:52 PM30.2 °F28.4 °F93 %29.80 in1.0 miSSW (210°)3.5 mphMist
7:54 PM30.9 °F28.9 °F92 %29.82 in1.2 miSSW (210°)3.5 mphPartly Cloudy
8:05 PM30.0 °F28.9 °F96 %29.81 in0.8 miCalmClear
8:11 PM30.9 °F30.0 °F96 %29.81 in1.2 miCalmClear
8:22 PM30.9 °F28.9 °F92 %29.82 in0.8 miCalm0.00 inClear
8:30 PM30.9 °F28.9 °F92 %29.82 in0.5 miCalm0.00 inFogLight Freezing Fog
8:54 PM28.9 °F27.0 °F92 %29.83 in0.2 miCalm0.00 inFogLight Freezing Fog
9:54 PM27.0 °F25.0 °F92 %29.83 in0.5 miSSW (200°)3.5 mph0.00 inFogLight Freezing Fog
10:01 PM28.0 °F26.1 °F92 %29.83 in0.5 miSSW (200°)3.5 mph0.00 inFog-RainLight Freezing Rain
10:21 PM30.0 °F27.0 °F88 %29.84 in1.0 miSSW (200°)3.5 mph0.00 inMist
10:23 PM30.9 °F28.0 °F89 %29.84 in2.0 miSouth (190°)3.5 mph0.00 inScattered Clouds
10:27 PM28.9 °F28.0 °F96 %29.84 in1.0 miCalm0.00 inMist
10:34 PM27.0 °F26.1 °F96 %29.85 in0.2 miCalm0.00 inFogLight Freezing Fog
10:45 PM28.0 °F26.1 °F92 %29.85 in1.2 miSSW (200°)3.5 mph0.00 inPartly Cloudy
10:48 PM28.4 °F26.6 °F93 %29.85 in1.0 miSSW (200°)3.5 mph0.00 inRainLight Freezing Rain
10:54 PM30.0 °F27.0 °F88 %29.87 in1.0 miSSW (210°)4.6 mph0.00 inRainLight Freezing Rain
11:00 PM28.9 °F28.0 °F96 %29.86 in2.5 miSW (220°)4.6 mph0.00 inRainLight Freezing Rain
11:04 PM28.9 °F28.0 °F96 %29.86 in9.0 miSSW (200°)4.6 mph0.00 inClear
11:32 PM28.9 °F26.1 °F89 %29.86 in8.0 miSSW (210°)3.5 mph0.00 inRainLight Freezing Rain
11:49 PM28.4 °F28.4 °F100 %29.87 in10.0 miSouth (190°)3.5 mph0.00 inClear
11:54 PM28.9 °F27.0 °F92 %29.88 in10.0 miSW (220°)3.5 mph0.00 inClear
Hourly data recorded from KMGJ, located miles away from Middletown, New York







STORIES FROM OUR PARTNERS